02:12
Airports
History
Links
Donate
Help keep this website running!
PayPal
Bitcoin
This page is community maintained. The information is intended for PC simulator navigation or reference.
Always use approved charts for navigation.
CYDF
DEER LAKE
DEER LAKE (CYDF)
Deer Lake, Newfoundland and Labrador, Canada
(U)
Lat/Lng:49° 12' 39.6" N / 57° 23' 28.49" W
49.211 / -57.391246
Elevation:72'ft / 22mMSL
ID / ICAO:CYDF
Runways:1
Longest:07-25
Asphalt 1,819m / 5,967ft
METAR01:00 GMT 2017-12-11
Altimeter: 29.43
Visibility: 4.0 statute miles
Wind: 17 knots (from 240°)
Temp: 1°c / 34°f
Humidity: 80.3%

METAR: CYDF 110100Z 24017G26KT 4SM -SN FEW009 BKN015 BKN025 01/M02 A2943 RMK SF2SC3SC2 PRESRR SLP968

(Powered by phpweather)
Airport Radio Frequencies
MF: 122.2
Nearby VORs <50NM
Nearby NDBs
Runway 07 / 25
Dimensions:1818.6 x 46m 5967' x 151'ft
Surface:Asphalt
Edge Lights:High intensity
Runway 07 [A]Runway 25 [B]
Heading:046°TH 226°TH
Lat:
Lng:
49° 12' 19.2"N
57° 24' 1.19"W
49° 12' 60"N
57° 22' 55.78"W
ALS:MALSSSALR
User Notes and Comments
49° 12' 39.6" N / 57° 23' 28.49" W
Distance To
Airport ID:
Nearby Airports
(U) STEPHENVILLE 70.1 NM
CYJT ( WX ) SW 228°
(U) EXPLOITS VALLEY BOTWOOD 88.5 NM
CCP2 E 96°
(C) GANDER INTL 129.1 NM
CYQX ( WX ) E 98°
(U) CHEVERY 132.5 NM
CYHR NW 310°
(U) ST ANDREWS CODROY VALLEY 132.7 NM
CDA5 SW 221°
(U) FOGO 145.0 NM
CDY3 ENE 77°
(U) ST AUGUSTIN 149.1 NM
CYIF NNW 337°
VFR Chart
Flight Planning at SkyVector.com